#timestamp,LO_Frequency,Hit,StdDev 
1686222015.4,286047000.7,N
1686222035.3,286047001.0,N
1686222055.1,286047000.9,N
1686222056.0,286047000.9,N
1686222075.8,286047000.3,N
1686222095.7,286047000.5,N
1686222115.5,286046998.1,N
1686222135.3,286046998.6,N
1686222155.2,286046998.7,N
1686222175.0,286046998.3,N
1686222175.9,286046998.3,N
1686222195.8,286046998.2,N
1686222215.6,286046998.8,N
1686222235.4,286046998.4,N
1686222255.3,286046999.3,N
1686222275.1,286046998.7,N
1686222295.8,286046997.0,N
1686222315.7,286046996.9,N
1686222335.5,286046997.2,N
1686222355.4,286046998.0,N
1686222375.2,286046997.9,N
1686222395.0,286046995.4,N
1686222395.9,286046995.4,N
1686222415.8,286046997.2,N
1686222435.6,286046996.8,N
1686222455.4,286046999.5,N
1686222475.3,286046996.6,N
1686222495.1,286046996.6,N
1686222515.9,286046996.7,N
1686222535.7,286046996.5,N
1686222555.5,286046999.1,N
1686222575.4,286046998.8,N
1686222595.2,286047001.0,N
1686222615.0,286047000.7,N
1686222615.9,286047000.7,N
1686222635.8,286047000.9,N
1686222655.6,286046998.1,N
1686222675.5,286047001.0,N
1686222695.3,286047001.2,N
1686222715.1,286046998.6,N
1686222735.9,286047000.9,N
1686222755.7,286047001.0,N
1686222775.5,286047000.8,N
1686222795.4,286047000.7,N
1686222815.2,286046998.1,N
1686222835.1,286047000.7,N
1686222836.0,286047000.7,N
1686222855.8,286047000.3,N
1686222875.6,286047000.4,N
1686222895.5,286046999.7,N
1686222915.3,286046999.7,N
1686222935.1,286047002.5,N
1686222955.9,286047002.8,N
1686222975.7,286046999.8,N
1686222995.6,286047000.2,N
1686223015.4,286047002.4,N
1686223035.2,286046999.7,N
1686223055.1,286047002.5,N
1686223056.0,286047002.5,N
1686223075.8,286047002.8,N
1686223095.6,286047001.9,N
1686223115.5,286046999.8,N
1686223135.3,286047001.6,N
1686223155.2,286047001.5,N
1686223175.9,286047001.5,N
1686223195.7,286047001.7,N
1686223215.6,286047001.3,N
1686223235.4,286047003.9,Y
1686223255.2,286047004.4,P
1686223275.1,286047003.9,N
1686223276.0,286047003.9,N
1686223295.8,286047001.8,N
1686223315.7,286047003.7,N
1686223335.5,286047004.1,Y
1686223355.3,286047000.6,P
1686223375.2,286047000.4,N
1686223395.0,286047000.5,N
1686223395.9,286047000.5,N
1686223415.8,286047000.9,N
1686223435.6,286046999.9,N
1686223455.4,286047002.8,N
1686223475.3,286046999.8,N
1686223495.1,286047002.4,N
1686223515.8,286047000.3,N
1686223535.7,286047000.1,N
1686223555.5,286046999.7,N
1686223575.3,286047000.0,N
1686223595.2,286046999.9,N
1686223615.0,286046999.9,N
1686223615.9,286046999.9,N
1686223635.8,286047002.1,N
1686223655.6,286047002.7,N
1686223675.4,286047000.1,N
1686223695.3,286047000.0,N
1686223715.1,286047002.8,N
1686223735.8,286047000.1,N
1686223755.7,286047000.9,N
1686223775.5,286047000.0,N
1686223795.4,286047000.0,N
1686223815.2,286047002.7,N
1686223835.0,286047000.1,N
1686223835.9,286047000.1,N
1686223855.8,286047000.6,N
1686223875.6,286046999.7,N
1686223895.5,286046999.7,N
1686223915.3,286047002.5,N
1686223935.1,286047002.7,N
1686223955.9,286046999.8,N
1686223975.7,286047002.2,N
1686223995.6,286047003.8,Y
1686224015.4,286047004.1,P
1686224035.2,286047003.5,N
1686224055.1,286047004.3,N
1686224056.0,286047004.3,Y
1686224075.8,286046999.1,P
1686224095.6,286046999.4,N
1686224115.5,286046998.7,N
1686224135.3,286046998.3,N
1686224155.2,286046998.4,N
1686224175.0,286046999.1,N
1686224175.9,286046999.1,N
1686224195.7,286046999.2,N
1686224215.6,286046996.6,N
1686224235.4,286046998.4,N
1686224255.3,286046998.8,N
1686224275.1,286046998.4,N
1686224276.0,286046998.4,N
1686224295.8,286046998.3,N
1686224315.7,286046998.2,N
1686224335.5,286046998.8,N
1686224355.4,286047001.2,N
1686224375.2,286047001.0,N
1686224395.0,286047000.8,N
1686224395.9,286047000.8,N
1686224415.8,286046998.7,N
1686224435.6,286046998.3,N
1686224455.5,286046998.2,N
1686224475.3,286046998.9,N
1686224495.1,286047001.2,N
1686224515.9,286047000.5,N
1686224535.7,286046998.8,N
1686224555.5,286047000.8,N
1686224575.4,286047001.0,N
1686224595.2,286046998.2,N
1686224615.1,286047001.1,N
1686224616.0,286047001.1,N
1686224635.8,286046999.4,N
1686224655.6,286046998.8,N
1686224675.5,286046999.2,N
1686224695.3,286046998.6,N
1686224715.2,286046998.2,N
1686224735.9,286047001.1,N
1686224755.7,286046998.7,N
1686224775.6,286046998.3,N
1686224795.4,286046998.4,N
1686224815.2,286046998.7,N
1686224835.1,286046999.2,N
1686224836.0,286046999.2,N
1686224855.8,286046998.7,N
1686224875.7,286046998.3,N
1686224895.5,286046999.3,N
1686224915.3,286046999.3,N
1686224935.2,286047001.2,N
1686224955.9,286047000.4,N
1686224975.7,286047000.7,N
1686224995.6,286047000.0,N
1686225015.4,286046999.8,N
1686225035.3,286046999.9,N
1686225055.1,286047000.6,N
1686225056.0,286047000.6,N
1686225075.8,286047000.5,N
1686225095.7,286046999.9,N
1686225115.5,286046998.6,N
1686225135.3,286047000.3,N
1686225155.2,286046998.2,N
1686225175.0,286047001.0,N
1686225175.9,286047001.0,N
1686225195.8,286046999.8,N
1686225215.6,286047000.3,N
1686225235.4,286047000.9,N
1686225255.3,286047001.1,N
1686225275.1,286047001.2,N
1686225295.8,286047000.6,N
1686225315.7,286047000.5,N
1686225335.5,286047001.0,N
1686225355.4,286047000.8,N
1686225375.2,286047000.4,N
1686225395.0,286047000.9,N
1686225395.9,286047000.9,N
1686225415.8,286047001.0,N
1686225435.6,286047000.8,N
1686225455.4,286046998.6,N
1686225475.3,286046998.9,N
1686225495.1,286046998.3,N
1686225515.9,286046999.9,N
1686225535.7,286047000.4,N
1686225555.5,286047000.7,N
1686225575.4,286046998.5,N
1686225595.2,286046998.1,N
